Voltar ao catálogo

STARLINK-31141

AtivoComunicaçõesVLEO
NORAD 58803·PAYLOAD·🇺🇸 United States

Lançado Jan 15, 2024 de Cape Canaveral Space Force Station

Loading…

Próximas Passagens (próximas 24 horas)

TLE

AtualizadoSource: CelesTrak SupGP

Época: Sep 15, 2026, 03:07 UTC

1 58803C 24012S   26258.13034722 -.00014648  00000+0 -53071-3 0  2589
2 58803  43.0007 175.5791 0001332 276.2496 176.3300 15.27576514    14

Acompanhe STARLINK-31141 em tempo real com AllMySat

Download on the App Store